Location: Big Meadows
(38.5260°N, 78.4400°W)
Time: 23:29:31
(UTC-04:00)

Amateur Radio Satellites - All Passes

Search period start: 29 June 2015 22:59
Search period end: 30 June 2015 22:59
Location: Big Meadows, 38.5260°N, 78.4400°W

Satellite Date Start Highest point End Downlink Frequencies (MHz)
Time Altitude Azimuth
ESTCUBE 1 29 Jun 23:05:23 23:09:18 31° 71° (ENE) 23:13:20 437.505/2401.250
UKube-1 29 Jun 23:06:35 23:10:56 90° 78° (ENE) 23:15:18 .
Oscar 11 29 Jun 23:12:21 23:15:05 16° 269° (W) 23:17:38 145.826/435.025
CUBEBUG 1 29 Jun 23:27:39 23:31:52 45° 73° (ENE) 23:36:08 437.445
UWE-3 29 Jun 23:28:19 23:30:45 14° 269° (W) 23:32:57 435.000/436.395/437.385
FUNcube-1 29 Jun 23:29:46 23:32:42 17° 268° (W) 23:35:29 145.935
50 SAT 29 Jun 23:31:53 23:35:43 69° 259° (WSW) 23:39:33 437.505
UNISAT 6 29 Jun 23:32:10 23:36:24 49° 100° (E) 23:40:41 437.425
VELOX 1 29 Jun 23:43:27 23:47:53 63° 260° (W) 23:52:20 145.980
QB50P1 29 Jun 23:48:16 23:51:55 29° 96° (E) 23:55:36 145.935-145.965
HUMSAT D 29 Jun 23:53:52 23:57:00 20° 267° (W) 00:00:01 437.325/437.525
NANOSAT C BR1 30 Jun 00:04:22 00:08:24 44° 99° (E) 00:12:25 145.865
Cosmos 2499 30 Jun 00:04:29 00:11:51 48° 269° (W) 00:19:39 435.465 / 435.565
POLYITAN 1 30 Jun 00:11:15 00:15:24 55° 100° (E) 00:19:32 437.675
DUCHIFAT 1 30 Jun 00:13:09 00:17:16 55° 100° (E) 00:21:22 145.980
DX 1 30 Jun 00:15:41 00:18:17 15° 269° (W) 00:20:40 434.975-435.025
ANTELSAT 30 Jun 00:16:36 00:20:49 51° 286° (WNW) 00:25:06 437.575/2403.000
TISAT 1 30 Jun 00:17:54 00:21:35 29° 71° (ENE) 00:25:19 437.305
AISAT 30 Jun 00:30:15 00:33:32 19° 267° (W) 00:36:40 437.250
TIGRISAT 30 Jun 00:31:37 00:35:35 36° 288° (WNW) 00:39:35 435.000
QB50P2 30 Jun 00:41:50 00:46:01 62° 285° (WNW) 00:50:10 145.880/145.840
ESTCUBE 1 30 Jun 00:42:34 00:46:13 23° 266° (W) 00:49:48 437.505/2401.250
POPSAT HIP 1 30 Jun 00:44:00 00:48:09 60° 285° (WNW) 00:52:16 437.405
SPROUT 30 Jun 00:50:07 00:54:26 77° 258° (WSW) 00:58:46 437.525
BUGSAT 1 30 Jun 00:54:02 00:58:07 72° 284° (WNW) 01:02:07 437.445
CUBEBUG 1 30 Jun 01:05:48 01:08:30 15° 269° (W) 01:11:01 437.445
UNISAT 6 30 Jun 01:10:23 01:12:50 14° 293° (WNW) 01:15:07 437.425
QB50P1 30 Jun 01:24:24 01:27:39 21° 291° (WNW) 01:30:48 145.935-145.965
BEESAT 30 Jun 01:27:40 01:31:45 30° 69° (ENE) 01:35:55 436.000
RS-15 30 Jun 01:28:52 01:32:19 13° 99° (E) 01:36:53 29.354- 29.394
NANOSAT C BR1 30 Jun 01:41:28 01:43:53 15° 293° (WNW) 01:46:09 145.865
SWISSCUBE 30 Jun 01:41:54 01:46:25 45° 72° (ENE) 01:51:01 437.505
ITUPSAT 1 30 Jun 01:44:39 01:49:08 43° 72° (ENE) 01:53:42 437.325
POLYITAN 1 30 Jun 01:49:07 01:50:52 12° 294° (WNW) 01:52:25 437.675
DUCHIFAT 1 30 Jun 01:50:55 01:52:39 12° 294° (WNW) 01:54:11 145.980
TISAT 1 30 Jun 01:54:04 01:57:23 21° 266° (W) 02:00:36 437.305
PCSat 30 Jun 01:59:33 02:04:27 34° 53° (NE) 02:09:23 145.827
Cosmos 2491 30 Jun 02:06:04 02:12:16 22° 64° (ENE) 02:18:49 435.465 / 435.565
Gurwin Techsat 1B 30 Jun 02:19:03 02:20:37 11° 87° (E) 02:22:34 435.225
KKS-1 30 Jun 02:30:04 02:33:25 22° 68° (ENE) 02:36:53 437.445
YUBILEINY 30 Jun 02:44:04 02:47:54 14° 79° (E) 02:52:23 435.215
SO-50 30 Jun 02:45:41 02:50:00 29° 49° (NE) 02:54:17 436.795
Oscar 19 30 Jun 02:52:50 02:57:59 87° 284° (WNW) 03:03:07 437.125/150
ITAMSAT 1 30 Jun 02:53:29 02:57:42 25° 94° (E) 03:02:01 435.822/435.867
BEESAT 30 Jun 03:05:32 03:09:34 27° 265° (W) 03:13:34 436.000
SWISSCUBE 30 Jun 03:21:20 03:24:34 17° 268° (W) 03:27:38 437.505
ITUPSAT 1 30 Jun 03:23:56 03:27:17 18° 268° (W) 03:30:29 437.325
RS-15 30 Jun 03:32:11 03:42:55 71° 116° (ESE) 03:54:01 29.354- 29.394
STARS 30 Jun 03:33:56 03:38:18 66° 75° (ENE) 03:42:41 437.465
PCSat 30 Jun 03:43:02 03:47:50 32° 250° (WSW) 03:52:32 145.827
AIST 1 30 Jun 03:43:39 03:47:55 50° 80° (E) 03:52:08
MOZHAYETS 4 30 Jun 03:47:42 03:50:02 14° 66° (ENE) 03:52:35
JAS-2 30 Jun 03:49:44 03:55:13 29° 95° (E) 04:01:22 435.910
Gurwin Techsat 1B 30 Jun 03:55:59 04:01:19 78° 286° (WNW) 04:06:38 435.225
Cosmos 2491 30 Jun 04:01:28 04:10:14 76° 265° (W) 04:18:53 435.465 / 435.565
KKS-1 30 Jun 04:05:51 04:09:54 32° 263° (W) 04:13:54 437.445
AO-7 30 Jun 04:10:38 04:17:12 26° 93° (E) 04:24:02 29.400- 29.500
SO-50 30 Jun 04:26:05 04:30:36 35° 246° (WSW) 04:34:58 436.795
ITAMSAT 1 30 Jun 04:32:31 04:37:19 37° 290° (WNW) 04:42:02 435.822/435.867
YUBILEINY 30 Jun 04:34:53 04:43:35 84° 96° (E) 04:52:19 435.215
Oscar 19 30 Jun 04:35:52 04:36:39 10° 299° (WNW) 04:37:08 437.125/150
HORYU 2 30 Jun 04:57:59 05:02:25 66° 101° (E) 05:06:52 437.375
MOZHAYETS 4 30 Jun 05:22:23 05:26:51 54° 261° (W) 05:31:21
AIST 1 30 Jun 05:23:18 05:25:08 12° 274° (W) 05:26:44
JAS-2 30 Jun 05:34:19 05:40:25 48° 288° (WNW) 05:47:12 435.910
CUBESAT XI-V 30 Jun 05:36:27 05:39:25 17° 67° (ENE) 05:42:33 437.345
RS-15 30 Jun 05:46:24 05:56:19 36° 321° (NW) 06:06:25 29.354- 29.394
Cosmos 2491 30 Jun 06:02:16 06:05:48 12° 282° (WNW) 06:08:36 435.465 / 435.565
AO-7 30 Jun 06:02:21 06:10:38 65° 292° (WNW) 06:18:49 29.400- 29.500
STRAND 1 30 Jun 06:07:44 06:10:28 15° 64° (ENE) 06:13:26 437.568
Cosmos 2504 30 Jun 06:20:52 06:27:35 42° 90° (E) 06:34:16 435.465 / 435.565
PRISM 30 Jun 06:24:50 06:27:23 16° 67° (ENE) 06:30:05 437.425
CUTE-I 30 Jun 06:31:17 06:34:54 19° 91° (E) 06:38:43 437.470
YUBILEINY 30 Jun 06:35:40 06:41:42 19° 297° (WNW) 06:47:18 435.215
HORYU 2 30 Jun 06:36:56 06:38:35 12° 296° (WNW) 06:39:59 437.375
Cubesat XI-IV 30 Jun 07:02:55 07:07:55 38° 97° (E) 07:12:54 437.490
CUBESAT XI-V 30 Jun 07:11:59 07:16:31 47° 262° (W) 07:21:04 437.345
STRAND 1 30 Jun 07:44:05 07:49:11 66° 258° (WSW) 07:54:20 437.568
M-CUBED/EXP-1 PRIME 30 Jun 07:48:43 07:50:37 15° 64° (ENE) 07:52:38 437.505
CUSAT 1 30 Jun 07:52:48 07:57:53 22° 93° (E) 08:02:26 437.405
AO-7 30 Jun 07:57:58 08:02:01 14° 310° (NW) 08:05:34 29.400- 29.500
PRISM 30 Jun 07:58:38 08:02:32 39° 262° (W) 08:06:28 437.425
BRITE-PL 30 Jun 08:03:16 08:05:03 13° 88° (E) 08:07:04 437.365/2234.400
RS-15 30 Jun 08:06:38 08:13:32 17° 354° (N) 08:20:29 29.354- 29.394
CUTE-I 30 Jun 08:10:08 08:15:20 51° 288° (WNW) 08:20:29 437.470
Cosmos 2504 30 Jun 08:14:48 08:21:09 31° 288° (WNW) 08:27:18 435.465 / 435.565
BEESAT 3 30 Jun 08:18:09 08:21:35 27° 114° (ESE) 08:25:07 437.485
DANDE 30 Jun 08:20:35 08:27:08 31° 93° (E) 08:32:48 436.750
BEESAT 2 30 Jun 08:23:27 08:26:45 25° 113° (ESE) 08:30:10 435.950
Cubesat XI-IV 30 Jun 08:43:24 08:47:51 26° 293° (WNW) 08:52:09 437.490
O/OREOS (USA 219) 30 Jun 08:46:19 08:50:43 65° 109° (ESE) 08:55:09 437.305
AUBIESAT-1 30 Jun 08:52:21 08:55:38 85° 251° (WSW) 08:59:00 437.475
VERMONT LUNAR 30 Jun 09:00:03 09:01:51 15° 147° (SSE) 09:03:43 437.305
AIST 2 30 Jun 09:09:52 09:12:55 20° 111° (ESE) 09:16:04 435.215
DOVE 4 30 Jun 09:10:37 09:14:04 25° 95° (E) 09:17:33 437.250
GONETS M04 30 Jun 09:11:32 09:18:59 33° 86° (E) 09:26:37
SEEDS 30 Jun 09:21:57 09:25:30 26° 95° (E) 09:29:06 437.485
M-CUBED/EXP-1 PRIME 30 Jun 09:22:31 09:25:19 25° 259° (W) 09:28:06 437.505
CUSAT 1 30 Jun 09:33:18 09:40:25 56° 281° (W) 09:45:58 437.405
BRITE-PL 30 Jun 09:39:48 09:44:05 47° 287° (WNW) 09:48:07 437.365/2234.400
GOMX 1 30 Jun 09:39:59 09:44:16 82° 283° (WNW) 09:48:24 467.674
HO-68 30 Jun 09:40:04 09:47:05 57° 101° (E) 09:54:07 435.675
ANTELSAT 30 Jun 09:41:43 09:42:02 10° 65° (ENE) 09:42:36 437.575/2403.000
ISS 30 Jun 09:45:13 09:48:12 35° 135° (SE) 09:51:13 145.825
AAUSAT CUBESAT 2 30 Jun 09:45:16 09:49:02 32° 96° (E) 09:52:50 437.432
TIGRISAT 30 Jun 09:54:21 09:56:31 14° 67° (ENE) 09:58:53 435.000
BEESAT 3 30 Jun 09:56:03 09:59:31 26° 310° (NW) 10:02:58 437.485
CUTE 1.7 + AOD 2 30 Jun 10:00:54 10:05:12 86° 283° (WNW) 10:09:28 437.475
BEESAT 2 30 Jun 10:01:07 10:04:44 29° 309° (NW) 10:08:21 435.950
DANDE 30 Jun 10:02:42 10:10:15 47° 283° (WNW) 10:16:18 436.750
CANX-2 30 Jun 10:03:30 10:07:47 72° 283° (WNW) 10:12:03 2200.000
COMPASS 1 30 Jun 10:06:46 10:10:59 70° 101° (E) 10:15:12 437.405
CUBEBUG 2 30 Jun 10:16:05 10:19:44 29° 96° (E) 10:23:29 437.445
RS-15 30 Jun 10:22:38 10:31:39 26° 29° (NNE) 10:41:17 29.354- 29.394
O/OREOS (USA 219) 30 Jun 10:28:38 10:30:41 13° 307° (NW) 10:32:32 437.305
UNISAT 6 30 Jun 10:30:01 10:33:58 36° 72° (ENE) 10:37:55 437.425
CINEMA 3 30 Jun 10:31:35 10:35:45 80° 283° (WNW) 10:39:56 145.822/145.860
DELFI C3 30 Jun 10:34:21 10:38:05 35° 97° (E) 10:41:50 145.870
VERMONT LUNAR 30 Jun 10:35:21 10:38:27 68° 162° (SSE) 10:41:36 437.305
ZACube-1 30 Jun 10:39:33 10:43:21 33° 97° (E) 10:47:13 437.345
QB50P1 30 Jun 10:40:13 10:43:13 19° 68° (ENE) 10:46:19 145.935-145.965
AIST 2 30 Jun 10:47:16 10:51:16 37° 307° (NW) 10:55:15 435.215
DOVE 4 30 Jun 10:48:28 10:51:47 23° 290° (WNW) 10:54:59 437.250
Cosmos 2499 30 Jun 10:48:46 10:54:01 24° 86° (E) 10:59:30 435.465 / 435.565
NANOSAT C BR1 30 Jun 10:55:42 10:59:18 28° 71° (ENE) 11:02:58 145.865
UKube-1 30 Jun 10:56:44 10:59:24 16° 92° (E) 11:02:13 .
SEEDS 30 Jun 10:57:44 11:01:12 24° 290° (WNW) 11:04:37 437.485
Oscar 11 30 Jun 10:59:01 11:03:22 80° 283° (WNW) 11:07:42 145.826/435.025
POLYITAN 1 30 Jun 11:02:53 11:06:44 35° 72° (ENE) 11:10:38 437.675
DUCHIFAT 1 30 Jun 11:04:07 11:07:57 34° 72° (ENE) 11:11:48 145.980
GONETS M04 30 Jun 11:07:03 11:15:34 50° 284° (WNW) 11:24:00
50 SAT 30 Jun 11:10:18 11:12:23 14° 92° (E) 11:14:38 437.505
ANTELSAT 30 Jun 11:14:01 11:18:20 69° 259° (WSW) 11:22:37 437.575/2403.000
UWE-3 30 Jun 11:17:04 11:21:13 65° 285° (WNW) 11:25:27 435.000/436.395/437.385
FUNcube-1 30 Jun 11:17:37 11:21:49 87° 285° (WNW) 11:26:04 145.935
AAUSAT CUBESAT 2 30 Jun 11:21:21 11:24:28 20° 291° (WNW) 11:27:26 437.432
PHONESAT 2.4 30 Jun 11:21:35 11:24:45 36° 154° (SSE) 11:27:59 2401.200-2431.200
ISS 30 Jun 11:21:53 11:24:40 25° 332° (NNW) 11:27:25 145.825
HO-68 30 Jun 11:28:35 11:34:27 27° 298° (WNW) 11:40:07 435.675
TIGRISAT 30 Jun 11:28:45 11:32:57 48° 261° (W) 11:37:06 435.000
QB50P2 30 Jun 11:32:55 11:37:11 81° 78° (ENE) 11:41:27 145.880/145.840
POPSAT HIP 1 30 Jun 11:34:55 11:39:10 82° 77° (ENE) 11:43:26 437.405
VELOX 1 30 Jun 11:35:49 11:39:32 27° 95° (E) 11:43:17 145.980
HUMSAT D 30 Jun 11:37:49 11:41:57 68° 101° (E) 11:46:06 437.325/437.525
BUGSAT 1 30 Jun 11:42:08 11:46:21 63° 75° (ENE) 11:50:33 437.445
CUBEBUG 2 30 Jun 11:53:08 11:56:18 21° 290° (WNW) 11:59:24 437.445
DX 1 30 Jun 12:03:11 12:07:32 77° 286° (WNW) 12:11:52 434.975-435.025
UNISAT 6 30 Jun 12:07:54 12:10:54 18° 268° (W) 12:13:44 437.425
DELFI C3 30 Jun 12:10:13 12:12:56 17° 291° (WNW) 12:15:31 145.870
VERMONT LUNAR 30 Jun 12:12:21 12:15:28 57° 358° (N) 12:18:37 437.305
QB50P1 30 Jun 12:15:00 12:18:53 33° 263° (W) 12:22:44 145.935-145.965
ZACube-1 30 Jun 12:16:31 12:19:32 19° 291° (WNW) 12:22:26 437.345
AISAT 30 Jun 12:20:48 12:25:14 89° 284° (WNW) 12:29:38 437.250
UKube-1 30 Jun 12:31:41 12:35:45 39° 288° (WNW) 12:39:45 .
NANOSAT C BR1 30 Jun 12:31:45 12:35:09 22° 266° (W) 12:38:26 145.865
Oscar 19 30 Jun 12:32:03 12:34:31 14° 63° (ENE) 12:37:15 437.125/150
RS-15 30 Jun 12:34:52 12:46:37 74° 56° (NE) 12:58:50 29.354- 29.394
ESTCUBE 1 30 Jun 12:35:30 12:40:04 82° 102° (ESE) 12:44:36 437.505/2401.250
SPROUT 30 Jun 12:39:03 12:42:10 20° 93° (E) 12:45:24 437.525
POLYITAN 1 30 Jun 12:39:47 12:42:47 18° 267° (W) 12:45:38 437.675
Cosmos 2499 30 Jun 12:39:49 12:46:44 52° 282° (WNW) 12:53:37 435.465 / 435.565
DUCHIFAT 1 30 Jun 12:40:50 12:43:51 18° 267° (W) 12:46:45 145.980
50 SAT 30 Jun 12:43:36 12:47:11 36° 287° (WNW) 12:50:46 437.505
CUBEBUG 1 30 Jun 12:53:57 12:58:19 72° 284° (WNW) 13:02:38 437.445
PHONESAT 2.4 30 Jun 12:59:13 13:02:41 73° 350° (N) 13:06:10 2401.200-2431.200
VELOX 1 30 Jun 13:12:20 13:16:01 26° 291° (WNW) 13:19:36 145.980
Gurwin Techsat 1B 30 Jun 13:38:01 13:41:24 18° 65° (ENE) 13:44:58 435.225
TISAT 1 30 Jun 13:38:46 13:42:56 65° 101° (E) 13:47:04 437.305
SWISSCUBE 30 Jun 13:45:28 13:47:32 13° 89° (E) 13:49:52 437.505
ITUPSAT 1 30 Jun 13:48:36 13:50:30 12° 89° (E) 13:52:40 437.325
VERMONT LUNAR 30 Jun 13:49:22 13:52:34 87° 13° (NNE) 13:55:46 437.305
Oscar 19 30 Jun 14:08:14 14:13:22 70° 258° (WSW) 14:18:30 437.125/150
ITAMSAT 1 30 Jun 14:09:57 14:14:34 34° 69° (ENE) 14:19:17 435.822/435.867
SPROUT 30 Jun 14:14:31 14:18:20 31° 289° (WNW) 14:22:04 437.525
PHONESAT 2.4 30 Jun 14:37:25 14:40:53 65° 7° (N) 14:44:22 2401.200-2431.200
YUBILEINY 30 Jun 14:47:09 14:55:06 39° 72° (ENE) 15:03:12 435.215
RS-15 30 Jun 14:48:28 14:58:20 31° 254° (WSW) 15:07:59 29.354- 29.394
Cosmos 2491 30 Jun 15:06:03 15:12:43 26° 84° (E) 15:19:44 435.465 / 435.565
BEESAT 30 Jun 15:06:10 15:11:00 87° 104° (ESE) 15:15:48 436.000
AO-7 30 Jun 15:08:08 15:15:14 34° 61° (ENE) 15:22:31 29.400- 29.500
Gurwin Techsat 1B 30 Jun 15:15:45 15:20:58 57° 259° (W) 15:26:13 435.225
TISAT 1 30 Jun 15:17:25 15:18:13 10° 295° (WNW) 15:18:46 437.305
SWISSCUBE 30 Jun 15:21:06 15:25:52 60° 286° (WNW) 15:30:35 437.505
ITUPSAT 1 30 Jun 15:24:07 15:28:54 63° 286° (WNW) 15:33:39 437.325
VERMONT LUNAR 30 Jun 15:26:40 15:29:18 23° 209° (SSW) 15:31:56 437.305
STARS 30 Jun 15:26:51 15:28:50 13° 90° (E) 15:31:04 437.465
JAS-2 30 Jun 15:45:54 15:51:01 64° 74° (ENE) 15:56:15 435.910
ITAMSAT 1 30 Jun 15:49:40 15:54:07 27° 265° (W) 15:58:31 435.822/435.867
HORYU 2 30 Jun 15:54:46 15:59:01 50° 73° (ENE) 16:03:19 437.375
KKS-1 30 Jun 15:57:51 16:02:10 51° 100° (E) 16:06:29 437.445
AIST 1 30 Jun 16:11:40 16:15:31 32° 91° (E) 16:19:28
ISS 30 Jun 16:13:56 16:16:50 30° 30° (NNE) 16:19:46 145.825
PHONESAT 2.4 30 Jun 16:15:30 16:18:54 50° 203° (SSW) 16:22:19 2401.200-2431.200
Cosmos 2504 30 Jun 16:15:48 16:18:59 13° 62° (ENE) 16:22:49 435.465 / 435.565
BEESAT 3 30 Jun 16:38:44 16:40:43 13° 43° (NE) 16:42:51 437.485
PCSat 30 Jun 16:39:42 16:44:41 40° 111° (ESE) 16:49:46 145.827
YUBILEINY 30 Jun 16:43:54 16:52:03 44° 271° (W) 17:00:05 435.215
BEESAT 2 30 Jun 16:44:38 16:46:22 13° 42° (NE) 16:48:15 435.950
BEESAT 30 Jun 16:47:43 16:48:13 10° 298° (WNW) 16:48:25 436.000
AO-7 30 Jun 16:59:35 17:07:44 55° 259° (WSW) 17:15:53 29.400- 29.500
Cosmos 2491 30 Jun 17:00:16 17:09:01 63° 281° (WNW) 17:17:46 435.465 / 435.565
STARS 30 Jun 17:01:24 17:05:38 49° 287° (WNW) 17:09:50 437.465
SO-50 30 Jun 17:01:50 17:03:03 11° 108° (ESE) 17:04:36 436.795
MOZHAYETS 4 30 Jun 17:18:54 17:23:15 38° 97° (E) 17:27:36
O/OREOS (USA 219) 30 Jun 17:21:26 17:21:58 10° 51° (NE) 17:22:46 437.305
AIST 2 30 Jun 17:33:42 17:34:55 11° 40° (NE) 17:36:18 435.215
HORYU 2 30 Jun 17:33:45 17:36:01 13° 270° (W) 17:38:04 437.375
JAS-2 30 Jun 17:34:34 17:36:51 12° 272° (W) 17:38:51 435.910
KKS-1 30 Jun 17:35:58 17:38:25 14° 294° (WNW) 17:40:41 437.445
AIST 1 30 Jun 17:50:01 17:53:17 20° 288° (WNW) 17:56:27
ISS 30 Jun 17:50:24 17:53:12 27° 227° (SW) 17:55:58 145.825
CUTE-I 30 Jun 17:51:31 17:55:57 28° 68° (ENE) 18:00:31 437.470
PHONESAT 2.4 30 Jun 17:55:26 17:56:29 11° 216° (SW) 17:57:24 2401.200-2431.200
Cosmos 2504 30 Jun 18:06:03 18:13:43 80° 82° (E) 18:21:59 435.465 / 435.565
BEESAT 3 30 Jun 18:15:08 18:19:09 64° 242° (WSW) 18:23:05 437.485
BEESAT 2 30 Jun 18:20:54 18:24:59 72° 241° (WSW) 18:28:58 435.950
Cubesat XI-IV 30 Jun 18:23:25 18:28:37 55° 73° (ENE) 18:33:53 437.490
PCSat 30 Jun 18:23:35 18:28:15 28° 309° (NW) 18:32:52 145.827
SO-50 30 Jun 18:38:17 18:43:00 76° 303° (WNW) 18:47:53 436.795
MOZHAYETS 4 30 Jun 18:56:48 19:00:13 20° 292° (WNW) 19:03:31
O/OREOS (USA 219) 30 Jun 18:57:34 19:02:06 84° 251° (WSW) 19:06:39 437.305
Cosmos 2491 30 Jun 19:05:42 19:08:12 11° 305° (NW) 19:09:55 435.465 / 435.565
AIST 2 30 Jun 19:09:58 19:14:11 89° 243° (WSW) 19:18:19 435.215
CUBESAT XI-V 30 Jun 19:10:01 19:14:34 48° 99° (E) 19:19:04 437.345
BRITE-PL 30 Jun 19:11:19 19:15:01 19° 67° (ENE) 19:18:48 437.365/2234.400
GOMX 1 30 Jun 19:12:24 19:13:16 11° 64° (ENE) 19:14:27 467.674
GONETS M04 30 Jun 19:24:45 19:28:42 14° 58° (ENE) 19:33:15
CUTE-I 30 Jun 19:31:01 19:35:55 35° 263° (W) 19:40:48 437.470
PRISM 30 Jun 19:42:18 19:46:01 30° 96° (E) 19:49:44 437.425
JUGNU 30 Jun 19:51:13 19:53:09 12° 176° (S) 19:55:05 437.505
STRAND 1 30 Jun 19:56:09 20:01:06 47° 99° (E) 20:06:04 437.568
Cosmos 2504 30 Jun 20:01:32 20:06:29 18° 277° (W) 20:11:09 435.465 / 435.565
Cubesat XI-IV 30 Jun 20:05:34 20:09:09 17° 269° (W) 20:12:31 437.490
HO-68 30 Jun 20:07:20 20:13:41 37° 65° (ENE) 20:20:09 435.675
SEEDS 30 Jun 20:13:40 20:16:08 16° 68° (ENE) 20:18:46 437.485
CUSAT 1 30 Jun 20:14:14 20:16:59 74° 262° (W) 20:19:33 437.405
DOVE 4 30 Jun 20:14:25 20:18:31 27° 71° (ENE) 20:22:33 437.250
SO-50 30 Jun 20:22:24 20:24:28 12° 323° (NW) 20:26:23 436.795
AAUSAT CUBESAT 2 30 Jun 20:35:26 20:38:16 19° 69° (ENE) 20:41:13 437.432
GOMX 1 30 Jun 20:45:31 20:50:51 89° 67° (ENE) 20:55:54 467.674
BRITE-PL 30 Jun 20:47:40 20:53:12 56° 261° (W) 20:58:28 437.365/2234.400
DANDE 30 Jun 20:47:58 20:50:46 35° 266° (W) 20:53:12 436.750
CUBESAT XI-V 30 Jun 20:48:35 20:51:39 17° 293° (WNW) 20:54:31 437.345
CUTE 1.7 + AOD 2 30 Jun 20:52:11 20:56:16 54° 75° (ENE) 21:00:24 437.475
CANX-2 30 Jun 20:54:47 20:58:56 66° 76° (ENE) 21:03:08 2200.000
COMPASS 1 30 Jun 20:56:36 21:00:25 38° 73° (ENE) 21:04:18 437.405
M-CUBED/EXP-1 PRIME 30 Jun 21:03:34 21:06:38 20° 100° (E) 21:09:57 437.505
CUBEBUG 2 30 Jun 21:13:28 21:16:48 22° 70° (ENE) 21:20:09 437.445
PRISM 30 Jun 21:18:05 21:21:17 21° 292° (WNW) 21:24:22 437.425
GONETS M04 30 Jun 21:18:38 21:27:23 77° 81° (E) 21:36:04
DELFI C3 30 Jun 21:21:02 21:23:45 18° 69° (ENE) 21:26:35 145.870
CINEMA 3 30 Jun 21:31:28 21:36:07 78° 77° (ENE) 21:40:33 145.822/145.860
ZACube-1 30 Jun 21:34:42 21:38:01 23° 70° (ENE) 21:41:21 437.345
STRAND 1 30 Jun 21:36:15 21:40:00 20° 294° (WNW) 21:43:36 437.568
JUGNU 30 Jun 21:39:55 21:41:17 11° 187° (S) 21:42:36 437.505
SEEDS 30 Jun 21:47:43 21:51:38 39° 262° (W) 21:55:35 437.485
UKube-1 30 Jun 21:51:19 21:53:10 13° 65° (ENE) 21:55:14 .
DOVE 4 30 Jun 21:51:45 21:56:13 31° 264° (W) 22:00:25 437.250
Oscar 11 30 Jun 21:52:08 21:56:23 64° 75° (ENE) 22:00:40 145.826/435.025
HO-68 30 Jun 21:54:40 22:01:21 41° 262° (W) 22:07:59 435.675
AUBIESAT-1 30 Jun 22:07:16 22:11:25 88° 282° (WNW) 22:15:51 437.475
AAUSAT CUBESAT 2 30 Jun 22:09:56 22:13:40 32° 264° (W) 22:17:23 437.432
FUNcube-1 30 Jun 22:11:50 22:16:01 59° 76° (ENE) 22:20:09 145.935
UWE-3 30 Jun 22:12:34 22:16:53 83° 78° (ENE) 22:21:08 435.000/436.395/437.385
SRMSAT 30 Jun 22:23:06 22:25:10 12° 181° (S) 22:27:15 437.500
HUMSAT D 30 Jun 22:28:15 22:32:03 38° 73° (ENE) 22:35:53 437.325/437.525
Cosmos 2499 30 Jun 22:30:47 22:38:12 49° 77° (ENE) 22:46:14 435.465 / 435.565
CUTE 1.7 + AOD 2 30 Jun 22:31:14 22:32:36 11° 271° (W) 22:33:43 437.475
VELOX 1 30 Jun 22:32:25 22:35:44 21° 68° (ENE) 22:39:11 145.980
COMPASS 1 30 Jun 22:33:43 22:36:17 15° 269° (W) 22:38:43 437.405
M-CUBED/EXP-1 PRIME 30 Jun 22:37:44 22:41:29 34° 292° (WNW) 22:45:26 437.505
CUBEBUG 2 30 Jun 22:49:32 22:53:23 29° 264° (W) 22:57:06 437.445
